UTA7775 URSS-USRO

Flight info

Callsign UTA7775
Flight time 4h 15m
Altitude 33000
Route ADNET W79 NZ B145 ER G128 ST G900 KR P135 ANATU L992 NAMOL T376 UTORA A925 HMN R124 ATBAR G486 ATLON ATLON1J
Aircraft A321/M-SDE3FGHIRWY/LB1

Departure

Time 2026-04-15 05:48
Airport Sochi International Airport (URSS)

Arrival

Time 2026-04-15 10:03
Airport Noyabrsk Airport (USRO)
Time Latitude Longitude Altitude Speed Heading
2026-04-15 04:54 43.44787 39.94317 66 ft 0 kts 332°
2026-04-15 05:39 43.44777 39.94324 64 ft 3 kts 332°
2026-04-15 05:39 43.44762 39.94335 64 ft 3 kts 332°
2026-04-15 05:39 43.44745 39.94345 58 ft 3 kts
2026-04-15 05:40 43.44729 39.94335 60 ft 2 kts 63°
2026-04-15 05:40 43.44731 39.94342 60 ft 5 kts 70°
2026-04-15 05:40 43.44756 39.94429 59 ft 11 kts 66°
2026-04-15 05:40 43.44784 39.94515 60 ft 8 kts 64°
2026-04-15 05:41 43.44806 39.94575 64 ft 6 kts 64°
2026-04-15 05:41 43.44816 39.94616 66 ft 3 kts 81°
2026-04-15 05:41 43.44813 39.94683 67 ft 17 kts 99°
2026-04-15 05:41 43.44790 39.94750 60 ft 0 kts 142°
2026-04-15 05:42 43.44765 39.94772 62 ft 13 kts 149°
2026-04-15 05:42 43.44701 39.94879 64 ft 15 kts 108°
2026-04-15 05:42 43.44696 39.95005 70 ft 12 kts 89°
2026-04-15 05:42 43.44676 39.95090 62 ft 9 kts 129°
2026-04-15 05:43 43.44651 39.95157 68 ft 7 kts 85°
2026-04-15 05:43 43.44658 39.95272 75 ft 13 kts 131°
2026-04-15 05:43 43.44578 39.95292 74 ft 11 kts 187°
2026-04-15 05:43 43.44490 39.95244 71 ft 14 kts 209°
2026-04-15 05:44 43.44416 39.95188 79 ft 10 kts 206°
2026-04-15 05:44 43.44313 39.95116 80 ft 31 kts 207°
2026-04-15 05:44 43.44128 39.94981 84 ft 24 kts 208°
2026-04-15 05:44 43.43991 39.94881 88 ft 21 kts 208°
2026-04-15 05:45 43.43873 39.94793 88 ft 18 kts 208°
2026-04-15 05:45 43.43770 39.94714 88 ft 16 kts 208°
2026-04-15 05:45 43.43681 39.94648 92 ft 12 kts 208°
2026-04-15 05:45 43.43613 39.94596 90 ft 10 kts 208°
2026-04-15 05:46 43.43558 39.94555 91 ft 8 kts 208°
2026-04-15 05:46 43.43509 39.94511 93 ft 11 kts 217°
2026-04-15 05:46 43.43463 39.94450 96 ft 7 kts 215°
2026-04-15 05:46 43.43444 39.94464 94 ft 3 kts 77°
2026-04-15 05:47 43.43478 39.94494 92 ft 1 kts 29°
2026-04-15 05:47 43.43492 39.94505 95 ft 0 kts 29°
2026-04-15 05:47 43.43548 39.94547 90 ft 37 kts 28°
2026-04-15 05:48 43.44017 39.94899 86 ft 113 kts 28°
2026-04-15 05:48 43.44885 39.95540 85 ft 160 kts 28°
2026-04-15 05:48 43.45880 39.96418 527 ft 172 kts 33°
2026-04-15 05:48 43.46926 39.97271 1008 ft 181 kts 28°
2026-04-15 05:49 43.48068 39.98102 1400 ft 185 kts 27°
2026-04-15 05:49 43.49238 39.98922 1932 ft 196 kts 22°
2026-04-15 05:49 43.50641 39.99148 2515 ft 214 kts 355°
2026-04-15 05:49 43.52186 39.98881 3091 ft 233 kts 351°
2026-04-15 05:50 43.53852 39.98507 3631 ft 250 kts 351°
2026-04-15 05:50 43.55583 39.98118 4176 ft 253 kts 351°
2026-04-15 05:50 43.59134 39.97394 5280 ft 256 kts 352°
2026-04-15 05:51 43.60893 39.97069 5825 ft 259 kts 353°
2026-04-15 05:51 43.62700 39.96752 6378 ft 263 kts 353°
2026-04-15 05:51 43.64496 39.96445 6922 ft 264 kts 353°
2026-04-15 05:51 43.66323 39.96134 7449 ft 266 kts 353°
2026-04-15 05:52 43.68165 39.95823 7993 ft 267 kts 353°
2026-04-15 05:52 43.70017 39.95507 8536 ft 269 kts 353°
2026-04-15 05:52 43.71881 39.95188 9101 ft 272 kts 353°
2026-04-15 05:52 43.73763 39.94866 9670 ft 273 kts 353°
2026-04-15 05:53 43.75656 39.94545 10243 ft 275 kts 353°
2026-04-15 05:53 43.77564 39.94220 10769 ft 278 kts 352°
2026-04-15 05:53 43.79492 39.93892 11290 ft 280 kts 352°
2026-04-15 05:53 43.81434 39.93560 11829 ft 283 kts 352°
2026-04-15 05:54 43.83423 39.93218 12382 ft 292 kts 352°
2026-04-15 05:54 43.85475 39.92866 12947 ft 301 kts 351°
2026-04-15 05:54 43.87585 39.92503 13508 ft 310 kts 351°
2026-04-15 05:54 43.89751 39.92129 14089 ft 318 kts 351°
2026-04-15 05:55 43.91969 39.91746 14589 ft 324 kts 351°
2026-04-15 05:55 43.94233 39.91358 15118 ft 330 kts 351°
2026-04-15 05:55 43.96532 39.90965 15638 ft 336 kts 351°
2026-04-15 05:55 43.98872 39.90565 16180 ft 341 kts 351°
2026-04-15 05:56 44.01276 39.90155 16384 ft 357 kts 351°
2026-04-15 05:56 44.03803 39.89720 16523 ft 374 kts 351°
2026-04-15 05:56 44.06424 39.89268 16825 ft 384 kts 351°
2026-04-15 05:56 44.09095 39.88809 17305 ft 389 kts 351°
2026-04-15 05:57 44.11801 39.88343 17806 ft 393 kts 351°
2026-04-15 05:57 44.14529 39.87873 18292 ft 398 kts 351°
2026-04-15 05:57 44.17286 39.87398 18745 ft 402 kts 351°
2026-04-15 05:57 44.20071 39.86918 19165 ft 404 kts 351°
2026-04-15 05:58 44.22868 39.86438 19618 ft 406 kts 351°
2026-04-15 05:58 44.25637 39.85962 20065 ft 407 kts 351°
2026-04-15 05:58 44.28490 39.85469 20513 ft 409 kts 351°
2026-04-15 05:58 44.31321 39.84978 20916 ft 411 kts 352°
2026-04-15 05:59 44.34136 39.84486 21237 ft 415 kts 352°
2026-04-15 05:59 44.37012 39.83982 21603 ft 418 kts 352°
2026-04-15 05:59 44.39904 39.83457 21986 ft 420 kts 351°
2026-04-15 05:59 44.42812 39.82900 22353 ft 422 kts 351°
2026-04-15 06:00 44.45725 39.82324 22745 ft 423 kts 350°
2026-04-15 06:00 44.48648 39.81739 23109 ft 425 kts 350°
2026-04-15 06:00 44.51585 39.81153 23461 ft 427 kts 350°
2026-04-15 06:00 44.54530 39.80573 23833 ft 428 kts 350°
2026-04-15 06:01 44.57483 39.79997 24073 ft 431 kts 351°
2026-04-15 06:01 44.60469 39.79417 24267 ft 434 kts 351°
2026-04-15 06:01 44.63459 39.78834 24537 ft 435 kts 351°
2026-04-15 06:01 44.66466 39.78248 24863 ft 435 kts 350°
2026-04-15 06:02 44.69462 39.77663 25188 ft 435 kts 351°
2026-04-15 06:02 44.72456 39.77078 25487 ft 435 kts 350°
2026-04-15 06:02 44.75456 39.76494 25752 ft 435 kts 351°
2026-04-15 06:02 44.78461 39.75905 26003 ft 436 kts 350°
2026-04-15 06:03 44.81464 39.75314 26268 ft 437 kts 350°
2026-04-15 06:03 44.84476 39.74720 26529 ft 438 kts 350°
2026-04-15 06:03 44.87500 39.74121 26697 ft 440 kts 351°
2026-04-15 06:03 44.90537 39.73520 26902 ft 442 kts 350°
2026-04-15 06:04 44.93595 39.72915 27082 ft 444 kts 351°
2026-04-15 06:04 44.96616 39.72320 27341 ft 444 kts 350°
2026-04-15 06:04 44.99662 39.71720 27784 ft 440 kts 350°
2026-04-15 06:04 45.02675 39.71125 28234 ft 436 kts 349°
2026-04-15 06:05 45.05674 39.70527 28646 ft 433 kts 349°
2026-04-15 06:05 45.08640 39.69937 29043 ft 430 kts 349°
2026-04-15 06:05 45.11603 39.69350 29393 ft 429 kts 350°
2026-04-15 06:05 45.14565 39.68764 29544 ft 431 kts 350°
2026-04-15 06:06 45.17545 39.68213 29681 ft 434 kts 354°
2026-04-15 06:06 45.20578 39.68203 29827 ft 438 kts
2026-04-15 06:06 45.23592 39.68915 29974 ft 443 kts 12°
2026-04-15 06:06 45.26518 39.70344 30217 ft 446 kts 21°
2026-04-15 06:07 45.29331 39.72179 30504 ft 444 kts 21°
2026-04-15 06:07 45.32138 39.74009 30733 ft 444 kts 21°
2026-04-15 06:07 45.34944 39.75833 30920 ft 444 kts 22°
2026-04-15 06:07 45.37757 39.77661 31043 ft 446 kts 22°
2026-04-15 06:08 45.40584 39.79501 31163 ft 447 kts 22°
2026-04-15 06:08 45.45293 39.82581 31375 ft 449 kts 23°
2026-04-15 06:08 45.48135 39.84449 31544 ft 450 kts 23°
2026-04-15 06:09 45.50976 39.86323 31732 ft 450 kts 23°
2026-04-15 06:09 45.53811 39.88195 31930 ft 449 kts 23°
2026-04-15 06:09 45.56654 39.90067 32061 ft 450 kts 23°
2026-04-15 06:09 45.59503 39.91943 32181 ft 451 kts 22°
2026-04-15 06:10 45.62361 39.93825 32322 ft 452 kts 23°
2026-04-15 06:10 45.65214 39.95711 32483 ft 452 kts 22°
2026-04-15 06:10 45.68071 39.97604 32648 ft 452 kts 22°
2026-04-15 06:10 45.70924 39.99498 32848 ft 452 kts 20°
2026-04-15 06:11 45.73772 40.01390 33029 ft 451 kts 22°
2026-04-15 06:11 45.76575 40.03255 33241 ft 450 kts 21°
2026-04-15 06:11 45.79417 40.05148 33376 ft 451 kts 23°
2026-04-15 06:11 45.82255 40.07040 33526 ft 451 kts 22°
2026-04-15 06:12 45.85103 40.08942 33681 ft 451 kts 23°
2026-04-15 06:12 45.87924 40.10901 33830 ft 451 kts 23°
2026-04-15 06:12 45.90717 40.12950 33976 ft 451 kts 26°
2026-04-15 06:12 45.93495 40.15059 34110 ft 451 kts 26°
2026-04-15 06:13 45.96256 40.17185 34256 ft 451 kts 26°
2026-04-15 06:13 45.99026 40.19316 34361 ft 451 kts 26°
2026-04-15 06:13 46.01795 40.21426 34484 ft 450 kts 24°
2026-04-15 06:13 46.04570 40.23522 34601 ft 450 kts 25°
2026-04-15 06:14 46.07343 40.25606 34721 ft 450 kts 24°
2026-04-15 06:14 46.10119 40.27691 34836 ft 449 kts 26°
2026-04-15 06:14 46.12883 40.29774 34955 ft 449 kts 25°
2026-04-15 06:14 46.15646 40.31859 35120 ft 447 kts 25°
2026-04-15 06:15 46.18402 40.33943 35251 ft 446 kts 25°
2026-04-15 06:15 46.21145 40.36015 35373 ft 445 kts 25°
2026-04-15 06:15 46.23892 40.38089 35494 ft 444 kts 25°
2026-04-15 06:15 46.26627 40.40156 35615 ft 443 kts 25°
2026-04-15 06:16 46.29359 40.42227 35728 ft 442 kts 27°
2026-04-15 06:16 46.32080 40.44293 35849 ft 441 kts 25°
2026-04-15 06:16 46.34757 40.46329 35986 ft 440 kts 25°
2026-04-15 06:16 46.37444 40.48427 36127 ft 438 kts 27°
2026-04-15 06:17 46.40099 40.50584 36180 ft 438 kts 28°
2026-04-15 06:17 46.45404 40.55021 36170 ft 442 kts 28°
2026-04-15 06:18 46.50736 40.59498 36170 ft 444 kts 27°
2026-04-15 06:18 46.56105 40.63957 36166 ft 444 kts 27°
2026-04-15 06:19 46.61762 40.67390 36162 ft 441 kts 15°
2026-04-15 06:19 46.67632 40.69978 36165 ft 441 kts 15°
2026-04-15 06:20 46.73505 40.72601 36169 ft 441 kts 15°
2026-04-15 06:20 46.79367 40.75234 36161 ft 441 kts 15°
2026-04-15 06:21 46.85240 40.77874 36160 ft 441 kts 16°
2026-04-15 06:21 46.91067 40.80497 36158 ft 442 kts 16°
2026-04-15 06:22 46.96942 40.83159 36164 ft 442 kts 16°
2026-04-15 06:22 47.02819 40.85827 36166 ft 442 kts 16°
2026-04-15 06:23 47.08696 40.88489 36163 ft 442 kts 16°
2026-04-15 06:23 47.14582 40.91164 36159 ft 442 kts 16°
2026-04-15 06:24 47.20460 40.93844 36164 ft 442 kts 16°
2026-04-15 06:24 47.26340 40.96534 36154 ft 443 kts 16°
2026-04-15 06:25 47.32184 40.99218 36158 ft 443 kts 16°
2026-04-15 06:25 47.38071 41.01926 36159 ft 443 kts 16°
2026-04-15 06:26 47.43966 41.04636 36161 ft 444 kts 17°
2026-04-15 06:26 47.49857 41.07352 36159 ft 444 kts 17°
2026-04-15 06:27 47.55756 41.10089 36153 ft 444 kts 17°
2026-04-15 06:27 47.61385 41.13794 36150 ft 445 kts 31°
2026-04-15 06:28 47.66687 41.18538 36147 ft 446 kts 31°
2026-04-15 06:28 47.71986 41.23242 36142 ft 447 kts 31°
2026-04-15 06:29 47.77324 41.27986 36146 ft 447 kts 31°
2026-04-15 06:29 47.82653 41.32759 36148 ft 448 kts 31°
2026-04-15 06:30 47.87978 41.37590 36134 ft 448 kts 33°
2026-04-15 06:30 47.93306 41.42451 36137 ft 449 kts 33°
2026-04-15 06:31 47.98647 41.47323 36139 ft 450 kts 32°
2026-04-15 06:31 48.03996 41.52213 36142 ft 451 kts 32°
2026-04-15 06:32 48.09314 41.57085 36152 ft 451 kts 33°
2026-04-15 06:32 48.14664 41.62001 36153 ft 451 kts 33°
2026-04-15 06:33 48.20013 41.66935 36155 ft 452 kts 33°
2026-04-15 06:33 48.25366 41.71869 36145 ft 452 kts 33°
2026-04-15 06:34 48.30729 41.76828 36149 ft 453 kts 33°
2026-04-15 06:34 48.35544 41.82794 36147 ft 448 kts 51°
2026-04-15 06:35 48.39358 41.90173 36150 ft 447 kts 54°
2026-04-15 06:35 48.43150 41.97593 36148 ft 447 kts 55°
2026-04-15 06:36 48.46947 42.05024 36153 ft 447 kts 55°
2026-04-15 06:36 48.50734 42.12459 36156 ft 447 kts 55°
2026-04-15 06:37 48.54517 42.19905 36159 ft 447 kts 55°
2026-04-15 06:37 48.58284 42.27374 36145 ft 447 kts 56°
2026-04-15 06:38 48.62019 42.34815 36146 ft 448 kts 56°
2026-04-15 06:38 48.65781 42.42314 36148 ft 448 kts 56°
2026-04-15 06:39 48.69542 42.49834 36146 ft 448 kts 56°
2026-04-15 06:39 48.73298 42.57364 36138 ft 448 kts 56°
2026-04-15 06:40 48.77041 42.64914 36138 ft 448 kts 56°
2026-04-15 06:40 48.80747 42.72510 36140 ft 448 kts 57°
2026-04-15 06:41 48.84407 42.80161 36138 ft 448 kts 57°
2026-04-15 06:41 48.88061 42.87821 36125 ft 448 kts 57°
2026-04-15 06:42 48.91727 42.95495 36131 ft 449 kts 57°
2026-04-15 06:42 48.95374 43.03125 36131 ft 449 kts 57°
2026-04-15 06:43 48.99043 43.10819 36139 ft 449 kts 57°
2026-04-15 06:43 49.02702 43.18530 36119 ft 449 kts 57°
2026-04-15 06:44 49.06356 43.26269 36106 ft 449 kts 57°
2026-04-15 06:44 49.10009 43.34021 36110 ft 450 kts 57°
2026-04-15 06:45 49.13664 43.41786 36113 ft 450 kts 57°
2026-04-15 06:45 49.17321 43.49568 36114 ft 450 kts 57°
2026-04-15 06:46 49.20943 43.57320 36097 ft 451 kts 57°
2026-04-15 06:46 49.24653 43.65063 36096 ft 453 kts 51°
2026-04-15 06:47 49.29470 43.71314 36100 ft 458 kts 33°
2026-04-15 06:47 49.34916 43.76423 36100 ft 459 kts 34°
2026-04-15 06:48 49.40358 43.81566 36105 ft 459 kts 34°
2026-04-15 06:48 49.45785 43.86723 36110 ft 458 kts 34°
2026-04-15 06:49 49.51204 43.91885 36111 ft 458 kts 34°
2026-04-15 06:49 49.56465 43.97293 36101 ft 457 kts 38°
2026-04-15 06:50 49.64159 44.05899 36124 ft 454 kts 39°
2026-04-15 06:50 49.69300 44.11591 36122 ft 454 kts 38°
2026-04-15 06:51 49.74456 44.17214 36116 ft 453 kts 38°
2026-04-15 06:51 49.79603 44.22835 36116 ft 453 kts 38°
2026-04-15 06:52 49.84745 44.28483 36116 ft 453 kts 38°
2026-04-15 06:52 49.89871 44.34150 36112 ft 452 kts 38°
2026-04-15 06:53 49.94995 44.39829 36113 ft 452 kts 38°
2026-04-15 06:53 50.00117 44.45509 36113 ft 452 kts 38°
2026-04-15 06:54 50.05223 44.51181 36116 ft 451 kts 38°
2026-04-15 06:54 50.10284 44.56836 36117 ft 450 kts 39°
2026-04-15 06:55 50.15365 44.62537 36098 ft 450 kts 38°
2026-04-15 06:55 50.20457 44.68251 36095 ft 450 kts 38°
2026-04-15 06:56 50.25534 44.73951 36099 ft 449 kts 38°
2026-04-15 06:56 50.30601 44.79660 36099 ft 449 kts 38°
2026-04-15 06:57 50.35663 44.85393 36101 ft 449 kts 38°
2026-04-15 06:57 50.40709 44.91138 36100 ft 448 kts 38°
2026-04-15 06:58 50.45761 44.96880 36107 ft 448 kts 38°
2026-04-15 06:58 50.50808 45.02625 36103 ft 448 kts 38°
2026-04-15 06:59 50.54997 45.07406 36095 ft 447 kts 38°
2026-04-15 06:59 50.60025 45.13165 36088 ft 447 kts 38°
2026-04-15 07:00 50.65856 45.19878 36089 ft 446 kts 38°
2026-04-15 07:00 50.70045 45.24714 36094 ft 445 kts 38°
2026-04-15 07:01 50.75044 45.30488 36089 ft 445 kts 38°
2026-04-15 07:01 50.80000 45.36216 36086 ft 444 kts 38°
2026-04-15 07:02 50.84982 45.42002 36085 ft 444 kts 38°
2026-04-15 07:02 50.89919 45.47849 36074 ft 443 kts 40°
2026-04-15 07:03 50.94761 45.53891 36077 ft 443 kts 40°
2026-04-15 07:03 50.99575 45.59980 36073 ft 443 kts 40°
2026-04-15 07:04 51.04620 45.65568 36077 ft 444 kts 28°
2026-04-15 07:04 51.10210 45.69726 36082 ft 443 kts 27°
2026-04-15 07:05 51.15789 45.73894 36070 ft 443 kts 27°
2026-04-15 07:05 51.21361 45.78085 36072 ft 443 kts 27°
2026-04-15 07:06 51.26930 45.82287 36052 ft 443 kts 27°
2026-04-15 07:06 51.32499 45.86502 36058 ft 443 kts 27°
2026-04-15 07:07 51.38039 45.90707 36055 ft 443 kts 27°
2026-04-15 07:07 51.43609 45.94938 36035 ft 443 kts 27°
2026-04-15 07:08 51.49188 45.99185 36043 ft 444 kts 27°
2026-04-15 07:08 51.54754 46.03486 36047 ft 443 kts 31°
2026-04-15 07:09 51.59669 46.09304 36059 ft 438 kts 43°
2026-04-15 07:09 51.64284 46.15726 36060 ft 438 kts 43°
2026-04-15 07:10 51.68902 46.22144 36052 ft 438 kts 43°
2026-04-15 07:10 51.73515 46.28569 36058 ft 438 kts 43°
2026-04-15 07:11 51.78118 46.35011 36059 ft 438 kts 43°
2026-04-15 07:11 51.82487 46.41835 36053 ft 435 kts 54°
2026-04-15 07:12 51.86171 46.49518 36047 ft 435 kts 53°
2026-04-15 07:12 51.89891 46.57254 36043 ft 436 kts 53°
2026-04-15 07:13 51.93610 46.64999 36039 ft 436 kts 53°
2026-04-15 07:13 51.97323 46.72765 36039 ft 435 kts 53°
2026-04-15 07:14 52.01030 46.80542 36037 ft 435 kts 54°
2026-04-15 07:14 52.04725 46.88322 36026 ft 435 kts 53°
2026-04-15 07:15 52.08413 46.96122 36029 ft 435 kts 54°
2026-04-15 07:15 52.12098 47.03937 36032 ft 435 kts 54°
2026-04-15 07:16 52.15784 47.11757 36034 ft 435 kts 53°
2026-04-15 07:16 52.19462 47.19599 36033 ft 435 kts 54°
2026-04-15 07:17 52.23123 47.27449 36036 ft 434 kts 54°
2026-04-15 07:17 52.26774 47.35311 36038 ft 434 kts 54°
2026-04-15 07:18 52.30417 47.43171 36033 ft 434 kts 54°
2026-04-15 07:18 52.34060 47.51039 36036 ft 434 kts 55°
2026-04-15 07:19 52.37673 47.58854 36044 ft 434 kts 53°
2026-04-15 07:19 52.41303 47.66748 36044 ft 434 kts 53°
2026-04-15 07:20 52.44932 47.74651 36049 ft 434 kts 54°
2026-04-15 07:20 52.48556 47.82574 36047 ft 434 kts 53°
2026-04-15 07:21 52.52171 47.90496 36048 ft 434 kts 54°
2026-04-15 07:21 52.55776 47.98440 36051 ft 434 kts 53°
2026-04-15 07:22 52.59383 48.06414 36060 ft 434 kts 54°
2026-04-15 07:22 52.62986 48.14408 36057 ft 435 kts 53°
2026-04-15 07:23 52.66591 48.22401 36062 ft 435 kts 54°
2026-04-15 07:23 52.70194 48.30406 36064 ft 435 kts 53°
2026-04-15 07:24 52.73786 48.38426 36073 ft 435 kts 53°
2026-04-15 07:24 52.77372 48.46471 36081 ft 435 kts 54°
2026-04-15 07:25 52.80947 48.54531 36080 ft 435 kts 54°
2026-04-15 07:25 52.84517 48.62601 36078 ft 435 kts 54°
2026-04-15 07:26 52.88083 48.70676 36081 ft 434 kts 54°
2026-04-15 07:26 52.91616 48.78723 36085 ft 434 kts 54°
2026-04-15 07:27 52.95166 48.86824 36079 ft 434 kts 54°
2026-04-15 07:27 52.98716 48.94926 36079 ft 434 kts 54°
2026-04-15 07:28 53.02257 49.03051 36084 ft 434 kts 54°
2026-04-15 07:28 53.05791 49.11202 36083 ft 434 kts 54°
2026-04-15 07:29 53.09321 49.19361 36082 ft 435 kts 54°
2026-04-15 07:29 53.12848 49.27536 36081 ft 435 kts 54°
2026-04-15 07:30 53.16376 49.35726 36084 ft 435 kts 54°
2026-04-15 07:30 53.19897 49.43929 36085 ft 435 kts 54°
2026-04-15 07:31 53.23408 49.52151 36081 ft 436 kts 54°
2026-04-15 07:31 53.26919 49.60407 36075 ft 436 kts 54°
2026-04-15 07:32 53.30435 49.68687 36083 ft 437 kts 54°
2026-04-15 07:32 53.33948 49.76982 36088 ft 437 kts 54°
2026-04-15 07:33 53.37453 49.85297 36096 ft 437 kts 54°
2026-04-15 07:33 53.40959 49.93641 36091 ft 438 kts 54°
2026-04-15 07:34 53.44446 50.01948 36110 ft 438 kts 54°
2026-04-15 07:34 53.47941 50.10330 36113 ft 438 kts 54°
2026-04-15 07:35 53.51433 50.18727 36116 ft 438 kts 54°
2026-04-15 07:35 53.54914 50.27148 36117 ft 439 kts 54°
2026-04-15 07:36 53.58387 50.35605 36112 ft 439 kts 54°
2026-04-15 07:36 53.61847 50.44070 36110 ft 439 kts 54°
2026-04-15 07:37 53.65307 50.52554 36117 ft 439 kts 54°
2026-04-15 07:37 53.68764 50.61045 36123 ft 439 kts 54°
2026-04-15 07:38 53.72216 50.69538 36118 ft 439 kts 53°
2026-04-15 07:38 53.75663 50.78044 36120 ft 439 kts 54°
2026-04-15 07:39 53.79099 50.86578 36117 ft 439 kts 53°
2026-04-15 07:39 53.82526 50.95123 36125 ft 439 kts 54°
2026-04-15 07:40 53.85944 51.03685 36133 ft 439 kts 53°
2026-04-15 07:40 53.89358 51.12252 36132 ft 439 kts 54°
2026-04-15 07:41 53.92771 51.20828 36129 ft 438 kts 53°
2026-04-15 07:41 53.96145 51.29355 36135 ft 438 kts 56°
2026-04-15 07:42 53.99538 51.37967 36132 ft 438 kts 54°
2026-04-15 07:42 54.03062 51.46411 36139 ft 437 kts 50°
2026-04-15 07:43 54.06884 51.54448 36139 ft 437 kts 49°
2026-04-15 07:43 54.10748 51.62438 36136 ft 437 kts 49°
2026-04-15 07:44 54.14549 51.70540 36148 ft 437 kts 50°
2026-04-15 07:44 54.18302 51.78712 36157 ft 438 kts 50°
2026-04-15 07:45 54.22056 51.86910 36139 ft 438 kts 49°
2026-04-15 07:45 54.25822 51.95101 36144 ft 438 kts 50°
2026-04-15 07:46 54.28959 52.01928 36151 ft 439 kts 49°
2026-04-15 07:46 54.32724 52.10163 36154 ft 439 kts 50°
2026-04-15 07:47 54.36473 52.18426 36153 ft 439 kts 50°
2026-04-15 07:47 54.40218 52.26718 36149 ft 440 kts 49°
2026-04-15 07:48 54.43973 52.35019 36152 ft 440 kts 49°
2026-04-15 07:48 54.47721 52.43358 36153 ft 441 kts 50°
2026-04-15 07:49 54.51454 52.51729 36162 ft 441 kts 50°
2026-04-15 07:49 54.55193 52.60128 36169 ft 442 kts 50°
2026-04-15 07:50 54.58937 52.68537 36165 ft 443 kts 50°
2026-04-15 07:50 54.62673 52.76981 36173 ft 443 kts 49°
2026-04-15 07:51 54.65952 52.86035 36178 ft 446 kts 58°
2026-04-15 07:51 54.68962 52.95417 36176 ft 447 kts 58°
2026-04-15 07:52 54.71957 53.04759 36186 ft 447 kts 58°
2026-04-15 07:52 54.74967 53.14180 36185 ft 448 kts 58°
2026-04-15 07:53 54.77975 53.23634 36182 ft 448 kts 58°
2026-04-15 07:53 54.80969 53.33107 36185 ft 448 kts 58°
2026-04-15 07:54 54.83961 53.42606 36207 ft 449 kts 59°
2026-04-15 07:54 54.86940 53.52121 36202 ft 449 kts 58°
2026-04-15 07:55 54.89908 53.61655 36200 ft 449 kts 58°
2026-04-15 07:56 54.94357 53.75951 36195 ft 448 kts 59°
2026-04-15 07:56 54.97317 53.85516 36195 ft 449 kts 58°
2026-04-15 07:57 55.00261 53.95075 36217 ft 448 kts 59°
2026-04-15 07:57 55.03200 54.04639 36216 ft 447 kts 59°
2026-04-15 07:58 55.06120 54.14185 36215 ft 446 kts 59°
2026-04-15 07:58 55.09033 54.23742 36219 ft 446 kts 60°
2026-04-15 07:59 55.11936 54.33305 36216 ft 446 kts 58°
2026-04-15 07:59 55.14830 54.42881 36212 ft 445 kts 59°
2026-04-15 08:00 55.17715 54.52465 36216 ft 445 kts 60°
2026-04-15 08:00 55.20597 54.62068 36210 ft 445 kts 59°
2026-04-15 08:01 55.23474 54.71686 36210 ft 445 kts 60°
2026-04-15 08:01 55.26317 54.81253 36241 ft 445 kts 59°
2026-04-15 08:02 55.29165 54.90884 36239 ft 444 kts 60°
2026-04-15 08:02 55.32007 55.00512 36242 ft 444 kts 60°
2026-04-15 08:03 55.34839 55.10138 36235 ft 444 kts 60°
2026-04-15 08:03 55.37661 55.19780 36233 ft 443 kts 60°
2026-04-15 08:04 55.40469 55.29436 36250 ft 443 kts 60°
2026-04-15 08:04 55.43278 55.39097 36245 ft 443 kts 61°
2026-04-15 08:05 55.46074 55.48759 36243 ft 442 kts 60°
2026-04-15 08:05 55.48855 55.58425 36247 ft 442 kts 61°
2026-04-15 08:06 55.51633 55.68112 36246 ft 442 kts 60°
2026-04-15 08:06 55.54401 55.77800 36261 ft 442 kts 61°
2026-04-15 08:07 55.57162 55.87510 36255 ft 442 kts 61°
2026-04-15 08:07 55.59911 55.97227 36264 ft 442 kts 61°
2026-04-15 08:08 55.62658 56.06949 36259 ft 442 kts 61°
2026-04-15 08:08 55.65396 56.16683 36269 ft 442 kts 61°
2026-04-15 08:09 55.68122 56.26426 36284 ft 441 kts 62°
2026-04-15 08:09 55.70845 56.36189 36294 ft 441 kts 61°
2026-04-15 08:10 55.73552 56.45956 36294 ft 441 kts 61°
2026-04-15 08:10 55.76254 56.55733 36296 ft 441 kts 60°
2026-04-15 08:11 55.78943 56.65515 36294 ft 441 kts 62°
2026-04-15 08:11 55.81622 56.75329 36316 ft 441 kts 62°
2026-04-15 08:12 55.84296 56.85127 36313 ft 440 kts 62°
2026-04-15 08:12 55.86967 56.94937 36323 ft 440 kts 61°
2026-04-15 08:13 55.89631 57.04761 36317 ft 440 kts 62°
2026-04-15 08:13 55.92269 57.14533 36323 ft 440 kts 62°
2026-04-15 08:14 55.94928 57.24453 36330 ft 440 kts 62°
2026-04-15 08:14 55.97565 57.34323 36337 ft 441 kts 62°
2026-04-15 08:15 56.00182 57.44148 36332 ft 441 kts 62°
2026-04-15 08:15 56.02808 57.54044 36348 ft 441 kts 63°
2026-04-15 08:16 56.05439 57.64027 36352 ft 441 kts 62°
2026-04-15 08:16 56.08043 57.73972 36367 ft 441 kts 63°
2026-04-15 08:17 56.10655 57.83926 36362 ft 442 kts 62°
2026-04-15 08:17 56.13251 57.93900 36370 ft 442 kts 62°
2026-04-15 08:18 56.15840 58.03904 36368 ft 442 kts 63°
2026-04-15 08:18 56.18406 58.13853 36371 ft 442 kts 62°
2026-04-15 08:19 56.20987 58.23934 36382 ft 442 kts 63°
2026-04-15 08:19 56.23534 58.33921 36380 ft 442 kts 63°
2026-04-15 08:20 56.26099 58.44015 36379 ft 442 kts 63°
2026-04-15 08:20 56.28640 58.54068 36380 ft 442 kts 63°
2026-04-15 08:21 56.31191 58.64191 36379 ft 442 kts 63°
2026-04-15 08:21 56.33727 58.74252 36384 ft 443 kts 63°
2026-04-15 08:22 56.36261 58.84360 36383 ft 443 kts 63°
2026-04-15 08:22 56.38792 58.94528 36380 ft 444 kts 63°
2026-04-15 08:23 56.41326 59.04759 36378 ft 444 kts 63°
2026-04-15 08:23 56.43849 59.14939 36390 ft 444 kts 63°
2026-04-15 08:24 56.46458 59.25042 36387 ft 444 kts 62°
2026-04-15 08:24 56.49090 59.35098 36396 ft 444 kts 62°
2026-04-15 08:25 56.51712 59.45210 36393 ft 444 kts 62°
2026-04-15 08:25 56.54317 59.55387 36392 ft 444 kts 62°
2026-04-15 08:26 56.56882 59.65509 36405 ft 444 kts 62°
2026-04-15 08:26 56.59465 59.75719 36412 ft 445 kts 62°
2026-04-15 08:27 56.62048 59.85946 36409 ft 445 kts 62°
2026-04-15 08:27 56.64606 59.96125 36410 ft 445 kts 62°
2026-04-15 08:28 56.67194 60.06354 36411 ft 445 kts 62°
2026-04-15 08:28 56.69793 60.16600 36408 ft 445 kts 62°
2026-04-15 08:29 56.72377 60.26855 36426 ft 445 kts 62°
2026-04-15 08:29 56.74923 60.37135 36421 ft 446 kts 63°
2026-04-15 08:30 56.77002 60.45709 36419 ft 446 kts 63°
2026-04-15 08:30 56.79505 60.56107 36417 ft 446 kts 63°
2026-04-15 08:31 56.82000 60.66443 36422 ft 447 kts 63°
2026-04-15 08:31 56.84490 60.76847 36437 ft 447 kts 63°
2026-04-15 08:32 56.87011 60.87199 36429 ft 445 kts 58°
2026-04-15 08:32 56.90633 60.96286 36424 ft 436 kts 40°
2026-04-15 08:33 56.95449 61.02806 36409 ft 430 kts 27°
2026-04-15 08:33 57.00585 61.08433 36417 ft 431 kts 28°
2026-04-15 08:34 57.05704 61.14094 36448 ft 431 kts 28°
2026-04-15 08:34 57.10820 61.19804 36440 ft 431 kts 28°
2026-04-15 08:35 57.15972 61.25560 36434 ft 431 kts 28°
2026-04-15 08:35 57.21074 61.31255 36438 ft 431 kts 28°
2026-04-15 08:36 57.26206 61.37014 36435 ft 431 kts 28°
2026-04-15 08:36 57.31317 61.42778 36435 ft 431 kts 28°
2026-04-15 08:37 57.36443 61.48569 36454 ft 431 kts 27°
2026-04-15 08:37 57.41544 61.54344 36453 ft 430 kts 28°
2026-04-15 08:38 57.46646 61.60146 36446 ft 430 kts 28°
2026-04-15 08:38 57.51765 61.65989 36442 ft 430 kts 28°
2026-04-15 08:39 57.56829 61.71782 36446 ft 430 kts 27°
2026-04-15 08:39 57.61919 61.77629 36481 ft 430 kts 28°
2026-04-15 08:40 57.66546 61.84848 36470 ft 436 kts 40°
2026-04-15 08:40 57.70891 61.92791 36457 ft 436 kts 39°
2026-04-15 08:41 57.75228 62.00717 36464 ft 436 kts 40°
2026-04-15 08:41 57.79561 62.08678 36447 ft 436 kts 40°
2026-04-15 08:42 57.83893 62.16683 36447 ft 436 kts 40°
2026-04-15 08:42 57.88183 62.24623 36464 ft 436 kts 39°
2026-04-15 08:43 57.92512 62.32646 36458 ft 436 kts 39°
2026-04-15 08:43 57.96833 62.40697 36458 ft 436 kts 40°
2026-04-15 08:44 58.01116 62.48709 36454 ft 436 kts 40°
2026-04-15 08:44 58.05439 62.56839 36453 ft 437 kts 40°
2026-04-15 08:45 58.09712 62.64895 36441 ft 435 kts 39°
2026-04-15 08:45 58.14010 62.73010 36440 ft 434 kts 39°
2026-04-15 08:46 58.18269 62.81090 36451 ft 435 kts 39°
2026-04-15 08:46 58.22541 62.89221 36447 ft 435 kts 39°
2026-04-15 08:47 58.26801 62.97361 36449 ft 435 kts 39°
2026-04-15 08:47 58.31059 63.05534 36489 ft 435 kts 39°
2026-04-15 08:48 58.35300 63.13706 36471 ft 435 kts 39°
2026-04-15 08:48 58.39552 63.21915 36469 ft 435 kts 39°
2026-04-15 08:49 58.43823 63.30175 36462 ft 436 kts 39°
2026-04-15 08:49 58.48047 63.38404 36459 ft 436 kts 40°
2026-04-15 08:50 58.52294 63.46719 36457 ft 436 kts 40°
2026-04-15 08:50 58.56498 63.54994 36456 ft 436 kts 40°
2026-04-15 08:51 58.60725 63.63317 36453 ft 436 kts 40°
2026-04-15 08:51 58.64955 63.71661 36463 ft 436 kts 39°
2026-04-15 08:52 58.69190 63.80046 36464 ft 436 kts 40°
2026-04-15 08:52 58.73391 63.88399 36462 ft 436 kts 40°
2026-04-15 08:53 58.77619 63.96825 36451 ft 435 kts 39°
2026-04-15 08:53 58.81796 64.05198 36444 ft 434 kts 40°
2026-04-15 08:54 58.85973 64.13601 36444 ft 435 kts 40°
2026-04-15 08:54 58.90180 64.22080 36452 ft 435 kts 40°
2026-04-15 08:55 58.94347 64.30505 36449 ft 436 kts 40°
2026-04-15 08:55 58.98558 64.39050 36501 ft 436 kts 40°
2026-04-15 08:56 59.02742 64.47583 36472 ft 436 kts 40°
2026-04-15 08:56 59.06901 64.56104 36465 ft 436 kts 40°
2026-04-15 08:57 59.11078 64.64705 36465 ft 437 kts 40°
2026-04-15 08:57 59.15246 64.73311 36458 ft 437 kts 40°
2026-04-15 08:58 59.19397 64.81911 36462 ft 437 kts 40°
2026-04-15 08:58 59.25615 64.94875 36436 ft 435 kts 40°
2026-04-15 08:59 59.29766 65.03543 36438 ft 436 kts 40°
2026-04-15 08:59 59.33883 65.12178 36444 ft 436 kts 40°
2026-04-15 09:00 59.38047 65.20946 36445 ft 437 kts 40°
2026-04-15 09:00 59.42179 65.29688 36444 ft 437 kts 40°
2026-04-15 09:01 59.46283 65.38405 36476 ft 438 kts 41°
2026-04-15 09:01 59.50415 65.47224 36466 ft 438 kts 41°
2026-04-15 09:02 59.54545 65.56055 36459 ft 438 kts 41°
2026-04-15 09:02 59.58666 65.64928 36452 ft 438 kts 41°
2026-04-15 09:03 59.62784 65.73813 36452 ft 439 kts 41°
2026-04-15 09:03 59.66897 65.82732 36453 ft 439 kts 41°
2026-04-15 09:04 59.70995 65.91666 36437 ft 438 kts 41°
2026-04-15 09:04 59.75060 66.00674 36434 ft 439 kts 42°
2026-04-15 09:05 59.79069 66.09833 36436 ft 440 kts 43°
2026-04-15 09:05 59.83057 66.19035 36438 ft 440 kts 43°
2026-04-15 09:06 59.87057 66.28251 36441 ft 440 kts 43°
2026-04-15 09:06 59.91057 66.37470 36433 ft 439 kts 43°
2026-04-15 09:07 59.95052 66.46684 36418 ft 439 kts 43°
2026-04-15 09:07 59.99050 66.55922 36422 ft 440 kts 43°
2026-04-15 09:08 60.03040 66.65205 36421 ft 441 kts 43°
2026-04-15 09:08 60.07019 66.74549 36426 ft 441 kts 43°
2026-04-15 09:09 60.10960 66.83866 36428 ft 441 kts 43°
2026-04-15 09:09 60.14925 66.93242 36424 ft 441 kts 43°
2026-04-15 09:10 60.18891 67.02642 36421 ft 441 kts 43°
2026-04-15 09:10 60.22852 67.12094 36422 ft 442 kts 44°
2026-04-15 09:11 60.26801 67.21571 36423 ft 442 kts 44°
2026-04-15 09:11 60.30750 67.31072 36463 ft 442 kts 44°
2026-04-15 09:12 60.34700 67.40596 36419 ft 442 kts 44°
2026-04-15 09:12 60.38637 67.50140 36417 ft 442 kts 44°
2026-04-15 09:13 60.42573 67.59713 36414 ft 443 kts 44°
2026-04-15 09:13 60.46505 67.69314 36414 ft 443 kts 44°
2026-04-15 09:14 60.50425 67.78953 36412 ft 443 kts 44°
2026-04-15 09:14 60.54343 67.88616 36402 ft 442 kts 44°
2026-04-15 09:15 60.58247 67.98274 36400 ft 442 kts 44°
2026-04-15 09:15 60.62149 68.07961 36397 ft 443 kts 44°
2026-04-15 09:16 60.66015 68.17618 36399 ft 443 kts 45°
2026-04-15 09:16 60.69914 68.27366 36393 ft 443 kts 45°
2026-04-15 09:17 60.73800 68.37151 36398 ft 444 kts 45°
2026-04-15 09:17 60.77679 68.46977 36392 ft 444 kts 45°
2026-04-15 09:18 60.80898 68.55148 36404 ft 444 kts 45°
2026-04-15 09:18 60.84774 68.64994 36395 ft 443 kts 45°
2026-04-15 09:19 60.88639 68.74853 36389 ft 443 kts 45°
2026-04-15 09:19 60.92498 68.84744 36381 ft 443 kts 45°
2026-04-15 09:20 60.96329 68.94633 36366 ft 443 kts 45°
2026-04-15 09:20 61.00175 69.04597 36360 ft 442 kts 45°
2026-04-15 09:21 61.04113 69.14180 36356 ft 436 kts 37°
2026-04-15 09:21 61.08618 69.22522 36361 ft 435 kts 36°
2026-04-15 09:22 61.13125 69.30905 36368 ft 436 kts 36°
2026-04-15 09:22 61.17627 69.39326 36380 ft 436 kts 36°
2026-04-15 09:23 61.22118 69.47756 36397 ft 436 kts 37°
2026-04-15 09:23 61.26623 69.56261 36392 ft 436 kts 37°
2026-04-15 09:24 61.31080 69.64706 36395 ft 437 kts 37°
2026-04-15 09:24 61.35572 69.73266 36388 ft 436 kts 37°
2026-04-15 09:25 61.40058 69.81774 36393 ft 436 kts 36°
2026-04-15 09:25 61.44562 69.90251 36387 ft 436 kts 36°
2026-04-15 09:26 61.49066 69.98757 36375 ft 435 kts 37°
2026-04-15 09:26 61.53544 70.07294 36371 ft 436 kts 37°
2026-04-15 09:27 61.58033 70.15873 36372 ft 436 kts 37°
2026-04-15 09:27 61.62503 70.24462 36374 ft 436 kts 37°
2026-04-15 09:28 61.66963 70.33082 36377 ft 437 kts 37°
2026-04-15 09:28 61.71427 70.41724 36374 ft 437 kts 37°
2026-04-15 09:29 61.75905 70.50430 36377 ft 436 kts 37°
2026-04-15 09:29 61.80341 70.59104 36369 ft 435 kts 37°
2026-04-15 09:30 61.84783 70.67794 36365 ft 436 kts 37°
2026-04-15 09:30 61.89219 70.76519 36043 ft 434 kts 37°
2026-04-15 09:31 61.91432 70.80892 35432 ft 435 kts 37°
2026-04-15 09:31 61.93647 70.85277 34843 ft 435 kts 37°
2026-04-15 09:31 61.95853 70.89662 34261 ft 435 kts 37°
2026-04-15 09:31 61.98057 70.94056 33570 ft 435 kts 37°
2026-04-15 09:32 62.00264 70.98460 32937 ft 434 kts 38°
2026-04-15 09:32 62.02465 71.02859 32237 ft 435 kts 38°
2026-04-15 09:32 62.04672 71.07272 31579 ft 434 kts 38°
2026-04-15 09:32 62.06861 71.11658 31113 ft 430 kts 38°
2026-04-15 09:33 62.09025 71.16006 30650 ft 425 kts 38°
2026-04-15 09:33 62.11160 71.20310 30368 ft 421 kts 38°
2026-04-15 09:33 62.15416 71.28910 30350 ft 421 kts 38°
2026-04-15 09:34 62.19671 71.37559 30352 ft 421 kts 38°
2026-04-15 09:34 62.23913 71.46213 30342 ft 421 kts 38°
2026-04-15 09:35 62.28156 71.54894 30356 ft 421 kts 38°
2026-04-15 09:35 62.32379 71.63563 30339 ft 420 kts 38°
2026-04-15 09:36 62.36595 71.72257 30335 ft 420 kts 38°
2026-04-15 09:36 62.40685 71.81252 29930 ft 421 kts 46°
2026-04-15 09:37 62.42332 71.86491 29342 ft 423 kts 54°
2026-04-15 09:37 62.43687 71.92128 28778 ft 421 kts 57°
2026-04-15 09:37 62.44996 71.97654 28245 ft 417 kts 56°
2026-04-15 09:37 62.46319 72.03190 27715 ft 412 kts 56°
2026-04-15 09:38 62.47632 72.08663 27184 ft 408 kts 56°
2026-04-15 09:38 62.48929 72.14075 26731 ft 403 kts 55°
2026-04-15 09:38 62.50212 72.19435 26250 ft 399 kts 55°
2026-04-15 09:38 62.51478 72.24739 25754 ft 394 kts 55°
2026-04-15 09:39 62.52726 72.30003 25274 ft 391 kts 55°
2026-04-15 09:39 62.53954 72.35209 24790 ft 387 kts 55°
2026-04-15 09:39 62.55172 72.40381 24289 ft 383 kts 55°
2026-04-15 09:39 62.56374 72.45500 23819 ft 379 kts 55°
2026-04-15 09:40 62.57561 72.50573 23255 ft 375 kts 55°
2026-04-15 09:40 62.58737 72.55597 22717 ft 372 kts 55°
2026-04-15 09:40 62.59899 72.60572 22175 ft 368 kts 55°
2026-04-15 09:40 62.61052 72.65506 21640 ft 364 kts 55°
2026-04-15 09:41 62.62187 72.70377 21125 ft 361 kts 55°
2026-04-15 09:41 62.63314 72.75225 20620 ft 357 kts 55°
2026-04-15 09:41 62.64426 72.80025 20206 ft 353 kts 54°
2026-04-15 09:41 62.65521 72.84767 19739 ft 350 kts 54°
2026-04-15 09:42 62.66609 72.89471 19270 ft 346 kts 54°
2026-04-15 09:42 62.67683 72.94133 18799 ft 344 kts 54°
2026-04-15 09:42 62.68748 72.98770 18313 ft 341 kts 55°
2026-04-15 09:42 62.69801 73.03379 17791 ft 338 kts 55°
2026-04-15 09:43 62.70830 73.07891 17288 ft 336 kts 55°
2026-04-15 09:43 62.71864 73.12436 16797 ft 334 kts 55°
2026-04-15 09:43 62.72888 73.16950 16313 ft 331 kts 56°
2026-04-15 09:43 62.73905 73.21442 15835 ft 329 kts 55°
2026-04-15 09:44 62.74917 73.25905 15359 ft 327 kts 56°
2026-04-15 09:44 62.75919 73.30327 14921 ft 324 kts 56°
2026-04-15 09:44 62.76917 73.34737 14476 ft 322 kts 56°
2026-04-15 09:44 62.77903 73.39117 14137 ft 321 kts 56°
2026-04-15 09:45 62.78887 73.43488 14071 ft 321 kts 56°
2026-04-15 09:45 62.79876 73.47888 14002 ft 323 kts 56°
2026-04-15 09:45 62.80863 73.52303 13917 ft 323 kts 57°
2026-04-15 09:45 62.81846 73.56723 13830 ft 323 kts 57°
2026-04-15 09:46 62.82828 73.61131 13742 ft 323 kts 57°
2026-04-15 09:46 62.83809 73.65540 13652 ft 322 kts 57°
2026-04-15 09:46 62.84790 73.69955 13586 ft 322 kts 57°
2026-04-15 09:46 62.85768 73.74360 13526 ft 322 kts 57°
2026-04-15 09:47 62.86740 73.78764 13472 ft 321 kts 57°
2026-04-15 09:47 62.87710 73.83175 13415 ft 321 kts 57°
2026-04-15 09:47 62.88679 73.87585 13358 ft 321 kts 57°
2026-04-15 09:47 62.89643 73.91993 13302 ft 321 kts 57°
2026-04-15 09:48 62.90608 73.96408 13240 ft 321 kts 57°
2026-04-15 09:48 62.91571 74.00806 13185 ft 320 kts 57°
2026-04-15 09:48 62.92536 74.05217 13127 ft 320 kts 57°
2026-04-15 09:48 62.93495 74.09621 13079 ft 320 kts 57°
2026-04-15 09:49 62.94452 74.14027 13009 ft 320 kts 57°
2026-04-15 09:49 62.95406 74.18434 12952 ft 317 kts 57°
2026-04-15 09:49 62.96326 74.22716 12885 ft 303 kts 57°
2026-04-15 09:49 62.97201 74.26812 12816 ft 289 kts 57°
2026-04-15 09:50 62.98040 74.30740 12667 ft 279 kts 57°
2026-04-15 09:50 62.98795 74.34578 12371 ft 279 kts 64°
2026-04-15 09:50 62.99187 74.38805 11999 ft 287 kts 78°
2026-04-15 09:50 62.99097 74.43232 11618 ft 294 kts 90°
2026-04-15 09:51 62.98810 74.47669 11236 ft 292 kts 90°
2026-04-15 09:51 62.98527 74.52085 10871 ft 291 kts 90°
2026-04-15 09:51 62.98246 74.56475 10504 ft 289 kts 90°
2026-04-15 09:51 62.97968 74.60838 10143 ft 287 kts 90°
2026-04-15 09:52 62.97693 74.65178 9732 ft 285 kts 91°
2026-04-15 09:52 62.97420 74.69480 9338 ft 284 kts 91°
2026-04-15 09:52 62.97149 74.73765 8949 ft 282 kts 91°
2026-04-15 09:52 62.96876 74.78014 8558 ft 280 kts 91°
2026-04-15 09:53 62.96601 74.82237 8161 ft 279 kts 91°
2026-04-15 09:53 62.96328 74.86439 7772 ft 278 kts 92°
2026-04-15 09:53 62.96051 74.90696 7057 ft 278 kts 92°
2026-04-15 09:53 62.95758 74.94911 6593 ft 292 kts 94°
2026-04-15 09:54 62.95124 74.99365 6269 ft 307 kts 115°
2026-04-15 09:54 62.94080 75.03232 6025 ft 284 kts 118°
2026-04-15 09:54 62.92790 75.06644 5799 ft 291 kts 141°
2026-04-15 09:54 62.91067 75.08750 5248 ft 280 kts 154°
2026-04-15 09:55 62.89532 75.11172 4586 ft 266 kts 126°
2026-04-15 09:55 62.88602 75.14487 4401 ft 252 kts 107°
2026-04-15 09:55 62.88249 75.18299 4260 ft 252 kts 83°
2026-04-15 09:55 62.88579 75.21901 4083 ft 233 kts 60°
2026-04-15 09:56 62.89447 75.24693 3938 ft 213 kts 33°
2026-04-15 09:56 62.90726 75.25841 3826 ft 191 kts 359°
2026-04-15 09:56 62.93211 75.24888 3368 ft 177 kts 348°
2026-04-15 09:57 62.94434 75.24460 3046 ft 178 kts 349°
2026-04-15 09:57 62.95652 75.24039 2672 ft 176 kts 348°
2026-04-15 09:57 62.96820 75.23634 2323 ft 165 kts 348°
2026-04-15 09:57 62.97919 75.23249 2093 ft 157 kts 348°
2026-04-15 09:58 62.98956 75.22878 2088 ft 143 kts 348°
2026-04-15 09:58 62.99972 75.22513 2062 ft 144 kts 348°
2026-04-15 09:58 63.00940 75.22172 2057 ft 138 kts 348°
2026-04-15 09:58 63.01882 75.21843 2060 ft 136 kts 348°
2026-04-15 09:59 63.02800 75.21509 2057 ft 131 kts 347°
2026-04-15 09:59 63.03692 75.21178 2059 ft 129 kts 347°
2026-04-15 09:59 63.04575 75.20847 2061 ft 129 kts 347°
2026-04-15 09:59 63.05459 75.20516 2063 ft 129 kts 347°
2026-04-15 10:00 63.06342 75.20181 2063 ft 129 kts 347°
2026-04-15 10:00 63.07227 75.19847 2066 ft 129 kts 347°
2026-04-15 10:00 63.08109 75.19512 2067 ft 128 kts 347°
2026-04-15 10:00 63.08989 75.19180 2059 ft 128 kts 347°
2026-04-15 10:01 63.09856 75.18861 1818 ft 126 kts 348°
2026-04-15 10:01 63.10727 75.19042 1444 ft 129 kts 15°
2026-04-15 10:01 63.11553 75.19895 1507 ft 133 kts 19°
2026-04-15 10:01 63.12403 75.20762 1558 ft 135 kts 18°
2026-04-15 10:02 63.13257 75.21635 1374 ft 135 kts 19°
2026-04-15 10:02 63.14106 75.22504 1177 ft 134 kts 20°
2026-04-15 10:02 63.14950 75.23368 991 ft 132 kts 18°
2026-04-15 10:02 63.15774 75.24217 815 ft 132 kts 19°
2026-04-15 10:03 63.16621 75.25082 636 ft 136 kts 21°
2026-04-15 10:03 63.17478 75.25961 506 ft 133 kts 20°
2026-04-15 10:03 63.18252 75.26725 460 ft 111 kts 26°
2026-04-15 10:03 63.18656 75.27131 454 ft 16 kts 25°
2026-04-15 10:04 63.18749 75.27238 454 ft 14 kts 30°
2026-04-15 10:04 63.18831 75.27341 454 ft 14 kts 29°
2026-04-15 10:04 63.18913 75.27440 452 ft 13 kts 26°
2026-04-15 10:04 63.19001 75.27527 450 ft 15 kts 25°
2026-04-15 10:05 63.19061 75.27589 450 ft 15 kts 24°